Zurück zum Katalog

STARLINK-3859

AktivKommunikationVLEO
NORAD 52470·PAYLOAD·🇺🇸 United States

Gestartet May 6, 2022 von Cape Canaveral Space Force Station

Loading…

Nächste Überflüge (nächste 24 Stunden)

TLE

AktuellSource: CelesTrak SupGP

Epoche: Sep 14, 2026, 21:30 UTC

1 52470C 22049V   26257.89631944  .00042135  00000+0  12453-2 0  2579
2 52470  53.1584 279.5661 0001278  89.4381 160.5317 15.34359400    11

Verfolge STARLINK-3859 in Echtzeit mit AllMySat

Download on the App Store